Location: Herm
(49.4830°N, 2.4500°W)
Time: 07:37:22
(UTC+00:00)

NOAA 15 - Pass Details

Date: 02 November 2021
Orbit: 797 x 813 km, 98.7° (Epoch: 08 December)

Event Time Altitude Azimuth Distance (km) Brightness Sun altitude
Rises 17:37:37 0° 127° (SE) 3,327 7.4 -8.8°
Reaches altitude 10° 17:40:15 10° 116° (ESE) 2,401 6.6 -9.2°
Maximum altitude 17:44:38 27° 60° (ENE) 1,523 5.5 -9.9°
Drops below altitude 10° 17:49:02 10° 5° (N) 2,414 6.9 -10.6°
Sets 17:51:41 0° 353° (N) 3,349 7.8 -11.1°
